Weather History for KMCW - September, 2012

Change the Weather History Date:

Saturday, September 29, 2012

  Actual Average Record
Temperature  
Mean Temperature 64 °F 55 °F  
Max Temperature 83 °F 68 °F 88 °F (1922)
Min Temperature 44 °F 42 °F 24 °F (1949)
Degree Days  
Heating Degree Days 1 11  
Month to date heating degree days 158 166  
Since 1 July heating degree days 189 202  
Cooling Degree Days 0 1  
Month to date cooling degree days 50 54  
Year to date cooling degree days 899 610  
Growing Degree Days 14 (Base 50)    
Moisture  
Dew Point 35 °F    
Average Humidity 46    
Maximum Humidity 76    
Minimum Humidity 15    
Precipitation  
Precipitation 0.00 in 0.10 in 1.06 in (1973)
Month to date precipitation 1.15 3.17  
Year to date precipitation 16.16 29.53  
Snow  
Snow 0.00 in 0.00 in 0.00 in (2002)
Month to date snowfall 0.0 0.0  
Since 1 July snowfall 0.0 0.0  
Since 1 September snowfall 0.0 0.0  
Snow Depth 0.00 in    
Sea Level Pressure  
Sea Level Pressure 30.09 in    
Wind  
Wind Speed 7 mph (WNW)    
Max Wind Speed 16 mph    
Max Gust Speed 20 mph    
Visibility 10 miles    
Events      
T = Trace of Precipitation, MM = Missing Value Source: NWS Daily Summary

Daily Weather History Graph

Daily Weather History Graph

Search for Another Location

Airport or City:

Trip Planner

Search our weather history database for the weather conditions in past years. The results will help you decide how hot, cold, wet, or windy it might be!

Date:

Astronomy

Sep. 29, 2012 Rise Set
Actual Time 7:09 AM CDT 6:57 PM CDT
Civil Twilight 6:40 AM CDT 7:25 PM CDT
Nautical Twilight 6:07 AM CDT 7:58 PM CDT
Astronomical Twilight 5:34 AM CDT 8:31 PM CDT
Moon 6:28 PM CDT (9/29) 6:41 AM CDT (9/29)
Length of Visible Light 12h 44m
Length of Day
11h 48m
Full, 100% of the Moon is Illuminated
Sep 29
Full
Sep 29
Full
Oct 8
Last Quarter
Oct 15
New
Oct 21
First Quarter

Hourly Weather History & Observations

Time (CDT) Temp. Windchill Dew Point Humidity Pressure Visibility Wind Dir Wind Speed Gust Speed Precip Events Conditions
12:53 AM 46.9 °F - 39.0 °F 74% 30.14 in 10.0 mi West 3.5 mph - N/A   Clear
1:53 AM 48.9 °F - 37.9 °F 66% 30.14 in 10.0 mi West 5.8 mph - N/A   Clear
2:53 AM 51.1 °F - 37.9 °F 61% 30.13 in 10.0 mi West 4.6 mph - N/A   Clear
3:53 AM 50.0 °F - 36.0 °F 59% 30.13 in 10.0 mi West 5.8 mph - N/A   Clear
4:53 AM 48.0 °F - 36.0 °F 63% 30.14 in 10.0 mi West 4.6 mph - N/A   Clear
5:53 AM 50.0 °F - 36.0 °F 59% 30.14 in 10.0 mi WSW 4.6 mph - N/A   Clear
6:53 AM 46.0 °F 43.9 °F 36.0 °F 68% 30.15 in 10.0 mi WNW 4.6 mph - N/A   Clear
7:53 AM 48.0 °F - 37.0 °F 66% 30.16 in 10.0 mi West 3.5 mph - N/A   Clear
8:53 AM 57.0 °F - 37.9 °F 49% 30.16 in 10.0 mi West 6.9 mph - N/A   Clear
9:53 AM 64.9 °F - 36.0 °F 34% 30.16 in 10.0 mi West 9.2 mph - N/A   Clear
10:53 AM 72.0 °F - 33.1 °F 24% 30.15 in 10.0 mi West 10.4 mph - N/A   Clear
11:53 AM 75.9 °F - 32.0 °F 20% 30.13 in 10.0 mi WNW 10.4 mph - N/A   Clear
12:53 PM 78.1 °F - 30.9 °F 18% 30.11 in 10.0 mi WNW 9.2 mph 17.3 mph N/A   Clear
1:53 PM 81.0 °F - 32.0 °F 17% 30.08 in 10.0 mi NW 9.2 mph - N/A   Clear
2:53 PM 82.0 °F - 32.0 °F 16% 30.05 in 10.0 mi WNW 10.4 mph - N/A   Clear
3:53 PM 82.0 °F - 30.9 °F 16% 30.04 in 10.0 mi NNW 10.4 mph - N/A   Clear
4:53 PM 82.0 °F - 32.0 °F 16% 30.01 in 10.0 mi NNW 12.7 mph - N/A   Clear
5:53 PM 80.1 °F - 32.0 °F 17% 30.01 in 10.0 mi North 11.5 mph - N/A   Clear
6:53 PM 68.0 °F - 33.1 °F 27% 30.02 in 10.0 mi NW 6.9 mph - N/A   Clear
7:53 PM 61.0 °F - 34.0 °F 36% 30.03 in 8.0 mi West 5.8 mph - N/A   Clear
8:53 PM 60.1 °F - 34.0 °F 38% 30.03 in 9.0 mi NNW 3.5 mph - N/A   Clear
9:53 PM 55.9 °F - 35.1 °F 45% 30.04 in 9.0 mi NW 3.5 mph - N/A   Clear
10:53 PM 53.1 °F - 35.1 °F 50% 30.04 in 8.0 mi Calm Calm - N/A   Clear
11:53 PM 51.1 °F - 37.0 °F 59% 30.04 in 7.0 mi West 5.8 mph - N/A   Clear